TimeCST,TemperatureF,Dew PointF,Humidity,Sea Level PressureIn,VisibilityMPH,Wind Direction,Wind SpeedMPH,Gust SpeedMPH,PrecipitationIn,Events,Conditions,WindDirDegrees,DateUTC
12:15 AM,46.2,44.4,93,30.22,10.0,South,8.1,-,N/A,,Clear,190,2014-01-16 06:15:00
12:35 AM,45.0,43.0,93,30.21,10.0,SSW,5.8,-,N/A,,Clear,200,2014-01-16 06:35:00
12:55 AM,44.1,42.3,93,30.20,10.0,South,5.8,-,N/A,,Clear,190,2014-01-16 06:55:00
1:15 AM,44.2,42.6,94,30.20,10.0,South,5.8,-,N/A,,Clear,190,2014-01-16 07:15:00
1:35 AM,46.0,44.2,93,30.20,10.0,SSW,8.1,-,N/A,,Clear,200,2014-01-16 07:35:00
1:55 AM,46.0,44.6,95,30.19,10.0,South,6.9,-,N/A,,Clear,190,2014-01-16 07:55:00
2:15 AM,44.8,43.3,95,30.19,10.0,North,-9999.0,-,N/A,,Clear,0,2014-01-16 08:15:00
2:35 AM,44.8,43.3,95,30.18,10.0,North,-9999.0,-,N/A,,Clear,0,2014-01-16 08:35:00
2:55 AM,46.2,44.6,94,30.18,10.0,South,4.6,-,N/A,,Clear,190,2014-01-16 08:55:00
3:15 AM,46.9,45.5,95,30.17,10.0,SSW,6.9,-,N/A,,Clear,210,2014-01-16 09:15:00
3:35 AM,47.3,46.0,95,30.17,10.0,SSW,5.8,-,N/A,,Clear,200,2014-01-16 09:35:00
3:55 AM,46.4,45.3,96,30.16,10.0,SSW,6.9,-,N/A,,Clear,200,2014-01-16 09:55:00
4:15 AM,45.5,44.6,97,30.15,5.0,South,4.6,-,N/A,,Clear,190,2014-01-16 10:15:00
4:35 AM,46.4,45.7,97,30.15,2.0,Calm,Calm,-,N/A,,Clear,0,2014-01-16 10:35:00
4:55 AM,47.1,46.6,98,30.13,3.0,SSW,9.2,-,N/A,,Clear,200,2014-01-16 10:55:00
5:15 AM,45.5,45.0,98,30.12,10.0,SSW,8.1,-,N/A,,Clear,200,2014-01-16 11:15:00
5:35 AM,46.8,46.4,99,30.13,10.0,SSW,4.6,-,N/A,,Clear,200,2014-01-16 11:35:00
5:55 AM,47.3,46.9,99,30.12,10.0,SSW,4.6,-,N/A,,Clear,210,2014-01-16 11:55:00
6:15 AM,46.9,46.6,99,30.12,10.0,SSW,6.9,-,N/A,,Clear,200,2014-01-16 12:15:00
6:35 AM,46.8,46.2,98,30.12,10.0,SSW,3.5,-,N/A,,Clear,210,2014-01-16 12:35:00
6:55 AM,47.8,47.3,98,30.13,10.0,Calm,Calm,-,N/A,,Clear,0,2014-01-16 12:55:00
7:15 AM,47.1,46.4,97,30.13,10.0,SSW,3.5,-,N/A,,Clear,210,2014-01-16 13:15:00
7:35 AM,46.9,46.2,97,30.13,10.0,SSW,6.9,-,N/A,,Clear,210,2014-01-16 13:35:00
7:55 AM,47.3,46.4,97,30.14,10.0,SSW,5.8,-,N/A,,Clear,210,2014-01-16 13:55:00
8:15 AM,48.0,47.3,97,30.14,10.0,SW,4.6,-,N/A,,Clear,220,2014-01-16 14:15:00
8:35 AM,52.5,51.6,97,30.15,10.0,SSW,3.5,-,N/A,,Clear,210,2014-01-16 14:35:00
8:55 AM,56.3,53.4,90,30.15,10.0,SSW,6.9,-,N/A,,Clear,210,2014-01-16 14:55:00
9:15 AM,59.2,52.2,78,30.16,10.0,South,10.4,-,N/A,,Clear,190,2014-01-16 15:15:00
9:35 AM,61.7,52.0,70,30.16,10.0,South,8.1,-,N/A,,Clear,190,2014-01-16 15:35:00
9:55 AM,64.0,51.6,64,30.17,10.0,South,10.4,-,N/A,,Clear,180,2014-01-16 15:55:00
10:15 AM,65.7,50.9,59,30.17,10.0,South,16.1,-,N/A,,Clear,190,2014-01-16 16:15:00
10:35 AM,67.3,50.2,54,30.16,10.0,South,15.0,21.9,N/A,,Clear,170,2014-01-16 16:35:00
10:55 AM,68.0,49.8,52,30.15,10.0,South,15.0,21.9,N/A,,Clear,170,2014-01-16 16:55:00
11:15 AM,68.4,50.0,52,30.15,10.0,South,15.0,24.2,N/A,,Clear,170,2014-01-16 17:15:00
11:35 AM,69.4,49.6,49,30.14,10.0,South,16.1,24.2,N/A,,Clear,180,2014-01-16 17:35:00
11:55 AM,70.3,49.8,48,30.13,10.0,South,18.4,23.0,N/A,,Clear,180,2014-01-16 17:55:00
12:15 PM,70.7,49.8,48,30.11,10.0,South,15.0,21.9,N/A,,Clear,190,2014-01-16 18:15:00
12:35 PM,70.7,49.6,47,30.10,10.0,South,16.1,25.3,N/A,,Clear,180,2014-01-16 18:35:00
12:55 PM,71.2,50.0,47,30.08,10.0,South,17.3,25.3,N/A,,Clear,170,2014-01-16 18:55:00
1:15 PM,70.9,50.5,48,30.07,10.0,South,17.3,25.3,N/A,,Clear,180,2014-01-16 19:15:00
1:35 PM,71.6,51.1,48,30.07,10.0,South,13.8,20.7,N/A,,Clear,180,2014-01-16 19:35:00
1:55 PM,71.4,49.6,46,30.06,10.0,South,19.6,-,N/A,,Clear,170,2014-01-16 19:55:00
2:35 PM,71.6,50.4,47,30.04,10.0,South,16.1,21.9,N/A,,Clear,170,2014-01-16 20:35:00
2:55 PM,71.2,50.2,47,30.04,10.0,SSE,15.0,21.9,N/A,,Clear,160,2014-01-16 20:55:00
3:15 PM,71.2,49.5,46,30.04,10.0,SSE,15.0,20.7,N/A,,Clear,160,2014-01-16 21:15:00
3:35 PM,71.2,49.8,47,30.04,10.0,SSE,15.0,18.4,N/A,,Clear,150,2014-01-16 21:35:00
3:55 PM,70.5,50.4,49,30.04,10.0,South,13.8,19.6,N/A,,Clear,170,2014-01-16 21:55:00
4:15 PM,70.0,51.3,51,30.05,10.0,SSE,10.4,-,N/A,,Clear,160,2014-01-16 22:15:00
4:35 PM,69.6,52.0,53,30.05,10.0,SSE,11.5,-,N/A,,Clear,160,2014-01-16 22:35:00
4:55 PM,68.7,52.5,56,30.05,10.0,SSE,10.4,-,N/A,,Clear,150,2014-01-16 22:55:00
5:15 PM,67.5,53.2,60,30.05,10.0,SSE,9.2,-,N/A,,Clear,150,2014-01-16 23:15:00
5:35 PM,66.0,53.8,65,30.05,10.0,SE,8.1,-,N/A,,Clear,140,2014-01-16 23:35:00
5:55 PM,63.9,54.0,70,30.05,10.0,SE,5.8,-,N/A,,Clear,130,2014-01-16 23:55:00
6:15 PM,61.2,53.4,76,30.06,10.0,ESE,6.9,-,N/A,,Clear,120,2014-01-17 00:15:00
6:35 PM,59.2,53.1,80,30.06,10.0,ESE,6.9,-,N/A,,Clear,110,2014-01-17 00:35:00
6:55 PM,58.3,53.1,83,30.07,10.0,ESE,5.8,-,N/A,,Clear,120,2014-01-17 00:55:00
7:15 PM,57.7,53.2,85,30.07,10.0,ESE,5.8,-,N/A,,Clear,110,2014-01-17 01:15:00
7:35 PM,57.2,53.8,88,30.07,10.0,East,5.8,-,N/A,,Clear,100,2014-01-17 01:35:00
7:55 PM,56.8,54.5,92,30.08,10.0,ESE,6.9,-,N/A,,Clear,110,2014-01-17 01:55:00
8:15 PM,57.2,55.0,92,30.09,10.0,ESE,4.6,-,N/A,,Clear,110,2014-01-17 02:15:00
8:35 PM,57.7,55.8,93,30.10,10.0,East,4.6,-,N/A,,Clear,100,2014-01-17 02:35:00
8:55 PM,57.6,55.6,93,30.10,10.0,East,3.5,-,N/A,,Clear,90,2014-01-17 02:55:00
9:15 PM,56.1,54.3,94,30.10,10.0,East,3.5,-,N/A,,Clear,80,2014-01-17 03:15:00
9:35 PM,56.5,55.0,95,30.11,10.0,ENE,4.6,-,N/A,,Clear,60,2014-01-17 03:35:00
9:55 PM,54.1,53.1,96,30.11,10.0,NE,6.9,-,N/A,,Clear,50,2014-01-17 03:55:00
10:15 PM,54.5,53.8,97,30.12,10.0,ENE,6.9,-,N/A,,Clear,60,2014-01-17 04:15:00
10:35 PM,55.0,54.1,97,30.12,10.0,ENE,4.6,-,N/A,,Clear,60,2014-01-17 04:35:00
10:55 PM,54.1,53.4,97,30.12,10.0,East,5.8,-,N/A,,Clear,80,2014-01-17 04:55:00
11:15 PM,55.2,54.7,98,30.12,10.0,ENE,4.6,-,N/A,,Clear,70,2014-01-17 05:15:00
11:35 PM,54.9,54.0,97,30.12,10.0,ENE,3.5,-,N/A,,Clear,70,2014-01-17 05:35:00
11:55 PM,54.1,53.4,97,30.12,10.0,ENE,4.6,-,N/A,,Clear,70,2014-01-17 05:55:00